Ottumwa, IA

10:48 PM CST on November 19, 2017 (GMT -0600)
Ottumwa Industrial

Weather History for KOTM - March, 2014

Change the Weather History Date:

Friday, March 28, 2014

  Actual Average Record
Temperature  
Mean Temperature 36 °F 44 °F  
Max Temperature 38 °F 55 °F 85 °F (1910)
Min Temperature 33 °F 33 °F 8 °F (1970)
Degree Days  
Heating Degree Days 29 21  
Month to date heating degree days 930 750  
Since 1 July heating degree days 6442 5635  
Cooling Degree Days 0 0  
Month to date cooling degree days 0 0  
Year to date cooling degree days 0 0  
Moisture  
Dew Point 30 °F    
Average Humidity 84    
Maximum Humidity 92    
Minimum Humidity 75    
Precipitation  
Precipitation 0.00 in 0.08 in 1.68 in (1931)
Month to date precipitation 0.33 1.98  
Year to date precipitation 1.66 4.16  
Sea Level Pressure  
Sea Level Pressure 30.01 in    
Wind  
Wind Speed 9 mph (NNW)    
Max Wind Speed 24 mph    
Max Gust Speed 33 mph    
Visibility 8 miles    
Events      
T = Trace of Precipitation, MM = Missing Value Source: NWS Daily Summary

Daily Weather History Graph

Daily Weather History Graph

Search for Another Location

Airport or City:

Trip Planner

Search our weather history database for the weather conditions in past years. The results will help you decide how hot, cold, wet, or windy it might be!

Date:

Astronomy

Mar. 28, 2014 Rise Set
Actual Time 6:59 AM CDT 7:30 PM CDT
Civil Twilight 6:32 AM CDT 7:58 PM CDT
Nautical Twilight 5:59 AM CDT 8:30 PM CDT
Astronomical Twilight 5:26 AM CDT 9:04 PM CDT
Moon 5:32 AM CDT (3/28) 5:26 PM CDT (3/28)
Length of Visible Light 13h 26m
Length of Day
12h 30m
Waning Crescent, 6% of the Moon is Illuminated
Mar 28
Waning Crescent
Mar 30
New
Apr 7
First Quarter
Apr 15
Full
Apr 22
Last Quarter

Hourly Weather History & Observations

Time (CDT) Temp. Windchill Dew Point Humidity Pressure Visibility Wind Dir Wind Speed Gust Speed Precip Events Conditions
12:53 AM 37.0 °F 26.2 °F 34.0 °F 89% 29.70 in 10.0 mi WNW 21.9 mph 28.8 mph N/A   Overcast
1:10 AM 37.0 °F 27.0 °F 34.0 °F 89% 29.70 in 10.0 mi WNW 18.4 mph 28.8 mph N/A   Overcast
1:53 AM 36.0 °F 25.0 °F 33.1 °F 89% 29.75 in 8.0 mi WNW 20.7 mph 29.9 mph N/A   Overcast
2:43 AM 36.0 °F 26.3 °F 33.1 °F 89% 29.77 in 9.0 mi NW 16.1 mph - N/A   Overcast
2:53 AM 36.0 °F 27.1 °F 33.1 °F 89% 29.79 in 9.0 mi NW 13.8 mph - N/A   Overcast
3:53 AM 36.0 °F 26.3 °F 32.0 °F 86% 29.82 in 9.0 mi NW 16.1 mph 24.2 mph N/A   Overcast
4:53 AM 35.1 °F 24.5 °F 30.9 °F 85% 29.85 in 9.0 mi NW 18.4 mph - N/A   Overcast
5:53 AM 35.1 °F 26.4 °F 30.9 °F 85% 29.91 in 8.0 mi NW 12.7 mph - N/A   Overcast
6:53 AM 34.0 °F 23.8 °F 28.9 °F 82% 29.94 in 10.0 mi NW 16.1 mph - N/A   Overcast
7:53 AM 34.0 °F 25.5 °F 28.9 °F 82% 29.98 in 7.0 mi NNW 11.5 mph - N/A   Overcast
8:53 AM 34.0 °F 23.8 °F 28.9 °F 82% 30.03 in 6.0 mi NNW 16.1 mph - N/A   Haze
9:53 AM 34.0 °F 25.5 °F 28.9 °F 82% 30.01 in 6.0 mi NNW 11.5 mph - N/A   Haze
10:53 AM 34.0 °F 25.0 °F 28.9 °F 82% 30.06 in 7.0 mi NNW 12.7 mph - N/A   Overcast
11:53 AM 35.1 °F 27.9 °F 28.9 °F 78% 30.07 in 7.0 mi NW 9.2 mph - N/A   Overcast
12:53 PM 36.0 °F 31.1 °F 28.9 °F 76% 30.11 in 7.0 mi North 5.8 mph - N/A   Overcast
1:53 PM 37.0 °F 31.6 °F 30.0 °F 76% 30.12 in 7.0 mi NNW 6.9 mph - N/A   Overcast
2:50 PM 35.6 °F - 28.4 °F 75% 30.10 in 8.0 mi Calm Calm - N/A   Overcast
2:53 PM 37.0 °F 34.5 °F 30.0 °F 76% 30.12 in 8.0 mi West 3.5 mph - N/A   Overcast
3:53 PM 37.0 °F - 30.0 °F 76% 30.12 in 7.0 mi Calm Calm - N/A   Overcast
4:53 PM 37.0 °F 33.3 °F 30.0 °F 76% 30.12 in 6.0 mi North 4.6 mph - N/A   Haze
5:53 PM 37.0 °F 31.6 °F 30.0 °F 76% 30.14 in 8.0 mi NNW 6.9 mph - N/A   Overcast
6:53 PM 37.0 °F 33.3 °F 30.0 °F 76% 30.15 in 8.0 mi NNE 4.6 mph - N/A   Overcast
7:53 PM 37.0 °F 34.5 °F 30.0 °F 76% 30.16 in 9.0 mi NNE 3.5 mph - N/A   Overcast
8:53 PM 36.0 °F 32.1 °F 30.0 °F 79% 30.18 in 8.0 mi North 4.6 mph - N/A   Overcast
9:53 PM 35.1 °F 31.0 °F 30.0 °F 82% 30.19 in 7.0 mi NNW 4.6 mph - N/A   Overcast
10:53 PM 35.1 °F 29.3 °F 30.0 °F 82% 30.19 in 7.0 mi NW 6.9 mph - N/A   Overcast
11:53 PM 35.1 °F 29.3 °F 30.0 °F 82% 30.21 in 8.0 mi NW 6.9 mph - N/A   Overcast